Simultaneous Nadir Overpasses (SNOs) Predictions

Prediction of SNOs between GOES-15 and LANDSAT-8 Satellite Orbit:

Table of predicted SNOs for the next 14.0 days since TLE Epoch: 1/29/2022
Index Date Time (GOES-15) GOES-15 Lat,Lon LANDSAT-8 Lat,Lon Distance(km) Time Diff (sec)
1 01/30/2022 18:36:48 -0.01,-128.32 -0.42,-126.46 211.26 80
2 01/31/2022 07:00:52 0.00,-128.29 -0.70,-131.65 382.57 80
3 02/02/2022 06:48:40 -0.02,-128.26 -0.11,-128.69 48.62 80
4 02/04/2022 06:36:28 -0.02,-128.24 0.48,-125.73 284.91 80
5 02/04/2022 18:55:04 0.02,-128.26 0.59,-130.89 299.41 80
6 02/06/2022 18:45:33 0.02,-128.23 -0.07,-127.94 33.98 80
7 02/08/2022 18:33:21 0.02,-128.20 -0.67,-124.98 366.62 80
8 02/09/2022 06:52:05 -0.02,-128.17 -0.45,-130.17 227.52 80
9 02/11/2022 06:42:34 0.00,-128.13 0.22,-127.22 104.21 80
10 02/11/2022 19:01:09 -0.00,-128.15 0.91,-132.37 480.66 80
